When you browse on this site, cookies collect data to enhance your experience and personalize the content and advertising you see.
Visit our Privacy Policy to learn more. By continuing to use the site, you agree to this use of cookies and data.
  • In Hungary
  • List of Countries
  • For 7 days
  • Water Temperature
  • Weather Map
  • News
  • Weather Widgets
  • user-avatar
    Login

    Hourly Weather Nauders

    Today, 6 April, Monday

    Time Temperature Precipitation Wind Pressure Humidity
    00:00 -7°C° 0 mm 3 mps 573 mmHg 82%
    01:00 -8°C° 0 mm 3 mps 573 mmHg 83%
    02:00 -8°C° 0 mm 3 mps 573 mmHg 83%
    03:00 -9°C° 0 mm 3 mps 573 mmHg 82%
    04:00 -9°C° 0 mm 3 mps 572 mmHg 81%
    05:00 -7°C° 0 mm 2 mps 573 mmHg 77%
    06:00 -7°C° 0 mm 2 mps 573 mmHg 73%
    07:00 -6°C° 0 mm 2 mps 574 mmHg 70%
    08:00 -2°C° 0 mm 1 mps 575 mmHg 72%
    09:00 0°C° 0 mm 1 mps 576 mmHg 75%
    10:00 +2°C° 0 mm 1 mps 577 mmHg 78%
    11:00 +2°C° 0 mm 1 mps 577 mmHg 77%
    12:00 +3°C° 0 mm 1 mps 577 mmHg 76%
    13:00 +4°C° 0 mm 1 mps 578 mmHg 75%
    14:00 +4°C° 0 mm 1 mps 578 mmHg 76%
    15:00 +4°C° 0 mm 1 mps 578 mmHg 77%
    16:00 +4°C° 0 mm 1 mps 578 mmHg 78%
    17:00 +2°C° 0 mm 1 mps 577 mmHg 80%
    18:00 0°C° 0 mm 1 mps 576 mmHg 81%
    19:00 -2°C° 0 mm 1 mps 575 mmHg 83%
    20:00 -2°C° 0 mm 1 mps 576 mmHg 82%
    21:00 -3°C° 0 mm 1 mps 576 mmHg 80%
    22:00 -3°C° 0 mm 1 mps 576 mmHg 79%
    23:00 -3°C° 0 mm 1 mps 576 mmHg 79%

    Tomorrow, 7 April, Tuesday

    Time Temperature Precipitation Wind Pressure Humidity
    00:00 -3°C° 0 mm 1 mps 576 mmHg 79%
    01:00 -4°C° 0 mm 1 mps 576 mmHg 80%
    02:00 -4°C° 0 mm 1 mps 576 mmHg 80%
    03:00 -4°C° 0 mm 1 mps 576 mmHg 81%
    04:00 -4°C° 0 mm 1 mps 576 mmHg 81%
    05:00 -3°C° 0 mm 1 mps 577 mmHg 81%
    06:00 -3°C° 0 mm 1 mps 577 mmHg 81%
    07:00 -2°C° 0 mm 1 mps 577 mmHg 81%
    08:00 0°C° 0 mm 1 mps 578 mmHg 80%
    09:00 +1°C° 0 mm 1 mps 579 mmHg 78%
    10:00 +3°C° 0 mm 1 mps 579 mmHg 76%
    11:00 +4°C° 0 mm 1 mps 580 mmHg 72%
    12:00 +5°C° 0 mm 1 mps 580 mmHg 68%
    13:00 +5°C° 0 mm 1 mps 580 mmHg 65%
    14:00 +5°C° 0 mm 1 mps 580 mmHg 65%
    15:00 +5°C° 0 mm 1 mps 580 mmHg 65%
    16:00 +6°C° 0 mm 1 mps 580 mmHg 64%
    17:00 +4°C° 0 mm 1 mps 578 mmHg 70%
    18:00 +2°C° 0 mm 1 mps 577 mmHg 75%
    19:00 0°C° 0 mm 1 mps 576 mmHg 80%
    20:00 -1°C° 0 mm 1 mps 577 mmHg 79%
    21:00 -1°C° 0 mm 1 mps 577 mmHg 78%
    22:00 -1°C° 0 mm 1 mps 577 mmHg 77%
    23:00 -1°C° 0 mm 1 mps 577 mmHg 78%

    Day after tomorrow, 8 April, Wednesday

    Time Temperature Precipitation Wind Pressure Humidity
    00:00 -2°C° 0 mm 1 mps 577 mmHg 79%
    01:00 -2°C° 0 mm 1 mps 577 mmHg 80%
    02:00 -2°C° 0 mm 1 mps 576 mmHg 81%
    03:00 -2°C° 0 mm 1 mps 576 mmHg 81%
    04:00 -3°C° 0 mm 1 mps 576 mmHg 82%
    05:00 -2°C° 0 mm 1 mps 576 mmHg 80%
    06:00 -2°C° 0 mm 0 mps 577 mmHg 78%
    07:00 -2°C° 0 mm 0 mps 577 mmHg 76%
    08:00 0°C° 0 mm 0 mps 578 mmHg 71%
    09:00 +2°C° 0 mm 0 mps 578 mmHg 66%
    10:00 +5°C° 0 mm 1 mps 579 mmHg 61%
    11:00 +6°C° 0 mm 1 mps 579 mmHg 58%
    12:00 +6°C° 0 mm 1 mps 579 mmHg 56%
    13:00 +7°C° 0 mm 1 mps 579 mmHg 53%
    14:00 +7°C° 0 mm 1 mps 579 mmHg 56%
    15:00 +7°C° 0 mm 1 mps 579 mmHg 59%
    16:00 +6°C° 0 mm 1 mps 578 mmHg 61%
    17:00 +5°C° 0.1 mm 1 mps 577 mmHg 70%
    18:00 +3°C° 0.1 mm 1 mps 576 mmHg 79%
    19:00 +1°C° 0.1 mm 1 mps 575 mmHg 88%
    20:00 -1°C° 0 mm 0 mps 575 mmHg 90%
    21:00 -1°C° 0 mm 0 mps 575 mmHg 92%
    22:00 -1°C° 0 mm 0 mps 575 mmHg 93%
    23:00 -1°C° 0 mm 0 mps 575 mmHg 94%

    9 April, Thursday

    Time Temperature Precipitation Wind Pressure Humidity
    00:00 -2°C° 0 mm 0 mps 575 mmHg 95%
    01:00 -2°C° 0 mm 0 mps 575 mmHg 95%
    02:00 -2°C° 0 mm 0 mps 575 mmHg 95%
    03:00 -2°C° 0 mm 0 mps 575 mmHg 95%
    04:00 -1°C° 0 mm 1 mps 575 mmHg 95%
    05:00 0°C° 0 mm 1 mps 575 mmHg 94%
    06:00 0°C° 0 mm 1 mps 575 mmHg 92%
    07:00 +1°C° 0 mm 1 mps 575 mmHg 91%
    08:00 +2°C° 0 mm 1 mps 576 mmHg 84%
    09:00 +3°C° 0 mm 1 mps 576 mmHg 77%
    10:00 +4°C° 0 mm 1 mps 577 mmHg 70%
    11:00 +5°C° 0 mm 1 mps 577 mmHg 63%
    12:00 +6°C° 0 mm 1 mps 577 mmHg 57%
    13:00 +7°C° 0 mm 1 mps 577 mmHg 51%
    14:00 +7°C° 0 mm 1 mps 577 mmHg 51%
    15:00 +6°C° 0 mm 2 mps 577 mmHg 51%
    16:00 +6°C° 0 mm 2 mps 577 mmHg 51%
    17:00 +4°C° 0 mm 2 mps 576 mmHg 63%
    18:00 +3°C° 0 mm 1 mps 575 mmHg 74%
    19:00 +1°C° 0 mm 1 mps 574 mmHg 85%
    20:00 +1°C° 0 mm 1 mps 574 mmHg 88%
    21:00 0°C° 0 mm 1 mps 574 mmHg 91%
    22:00 -1°C° 0 mm 0 mps 574 mmHg 94%
    23:00 -2°C° 0 mm 0 mps 574 mmHg 93%

    10 April, Friday

    Time Temperature Precipitation Wind Pressure Humidity
    00:00 -2°C° 0 mm 0 mps 574 mmHg 93%
    01:00 -2°C° 0 mm 0 mps 574 mmHg 92%
    02:00 -2°C° 0 mm 0 mps 574 mmHg 92%
    03:00 -2°C° 0 mm 0 mps 574 mmHg 91%
    04:00 -2°C° 0 mm 0 mps 574 mmHg 91%
    05:00 -1°C° 0 mm 0 mps 574 mmHg 86%
    06:00 0°C° 0 mm 0 mps 575 mmHg 82%
    07:00 +1°C° 0 mm 0 mps 576 mmHg 78%
    08:00 +3°C° 0 mm 1 mps 576 mmHg 68%
    09:00 +5°C° 0 mm 1 mps 577 mmHg 59%
    10:00 +7°C° 0 mm 1 mps 578 mmHg 50%
    11:00 +8°C° 0 mm 1 mps 578 mmHg 46%
    12:00 +9°C° 0 mm 1 mps 578 mmHg 43%
    13:00 +10°C° 0 mm 1 mps 578 mmHg 40%
    14:00 +10°C° 0 mm 1 mps 578 mmHg 42%
    15:00 +9°C° 0 mm 1 mps 578 mmHg 43%
    16:00 +9°C° 0 mm 1 mps 578 mmHg 45%
    17:00 +7°C° 0 mm 1 mps 576 mmHg 57%
    18:00 +5°C° 0 mm 1 mps 575 mmHg 69%
    19:00 +3°C° 0 mm 1 mps 574 mmHg 81%
    20:00 +2°C° 0 mm 1 mps 574 mmHg 84%
    21:00 +2°C° 0 mm 1 mps 574 mmHg 87%
    22:00 0°C° 0 mm 0 mps 574 mmHg 90%
    23:00 +1°C° 0 mm 1 mps 574 mmHg 90%

    11 April, Saturday

    Time Temperature Precipitation Wind Pressure Humidity
    00:00 +1°C° 0 mm 1 mps 574 mmHg 91%
    01:00 +1°C° 0 mm 1 mps 574 mmHg 91%
    02:00 +1°C° 0 mm 1 mps 574 mmHg 91%
    03:00 0°C° 0 mm 1 mps 574 mmHg 91%
    04:00 0°C° 0 mm 1 mps 573 mmHg 91%
    05:00 0°C° 0 mm 0 mps 574 mmHg 88%
    06:00 +1°C° 0 mm 0 mps 575 mmHg 85%
    07:00 +2°C° 0 mm 0 mps 575 mmHg 82%
    08:00 +3°C° 0 mm 0 mps 576 mmHg 76%
    09:00 +6°C° 0 mm 1 mps 576 mmHg 70%
    10:00 +7°C° 0 mm 1 mps 577 mmHg 63%
    11:00 +8°C° 0.1 mm 1 mps 577 mmHg 60%
    12:00 +8°C° 0.1 mm 1 mps 577 mmHg 56%
    13:00 +8°C° 0.1 mm 2 mps 577 mmHg 52%
    14:00 +8°C° 0.3 mm 2 mps 577 mmHg 53%
    15:00 +8°C° 0.3 mm 2 mps 576 mmHg 53%
    16:00 +7°C° 0.3 mm 2 mps 576 mmHg 53%
    17:00 +7°C° 0.2 mm 1 mps 575 mmHg 63%
    18:00 +5°C° 0.2 mm 1 mps 575 mmHg 73%
    19:00 +3°C° 0.2 mm 1 mps 574 mmHg 83%
    20:00 +3°C° 0.2 mm 1 mps 574 mmHg 86%
    21:00 +2°C° 0.2 mm 1 mps 574 mmHg 89%
    22:00 +2°C° 0.2 mm 1 mps 574 mmHg 92%
    23:00 +2°C° 0.1 mm 1 mps 575 mmHg 93%
    Show more